Location: Amherst
(42.5000°N, 72.5000°W)
Time: 22:58:46
(UTC-04:00)

ISS - Pass Details

Date: 25 May 2018
Orbit: 402 x 407 km, 51.6° (Epoch: 25 May)

Event Time Altitude Azimuth Distance (km) Brightness Sun altitude
Rises 22:11:03 0° 281° (WNW) 2,317 0.8 -16.9°
Reaches altitude 10° 22:13:32 10° 301° (WNW) 1,458 0.0 -17.2°
Maximum altitude 22:15:58 19° 349° (NNW) 1,038 -0.9 -17.5°
Drops below altitude 10° 22:18:23 10° 37° (NE) 1,459 -0.8 -17.8°
Sets 22:20:53 0° 56° (NE) 2,319 0.0 -18.0°
